Content
SEND FEEDBACK

Daily
Averages
Monthly
Summary
Philippines

QUEZON CITY, PHILIPPINES


Home > Asia > Philippines
Elevation: 46 meters     Latitude: 14 39N     Longitude: 121 03E

WEATHER
 
SELECT A DAY
Number of Records: 177,041;   Date Range: 7/1/96 - 10/21/14
 
SHARE

PRINT THIS DATA

[ ← Previous Day ]
WEATHER ALMANAC - 7 JANUARY, 2013
[ Next Day → ]
[ °F ]   °C
Weather ElementAverageHighLow
Temperature27.4 °C31 °C (12:00 pm)25 °C (5:00 am)
Dewpoint23.1 °C24 °C (3:00 am)21.7 °C (5:00 pm)
Humidity76.7 %89 % (3:00 am)53 % (5:00 pm)
Barometer1010.8 hPa1013.2 hPa (9:00 am)1008.1 hPa (4:00 pm)
Wind Speed9 km/h16.7 km/h (4:00 pm)
Weather ElementAverage
Visibility9.8 km
Wind DirectionESE (128.6 °)

Weather ElementTotal
Precipitation---
Cooling Degree Days9.7 (Base 18.3)
Growing Degree Days18 (Base 10)
Averaged from 28 records on 7 January, 2013
WEATHER CONDITIONS BREAKOUT
WIND DIRECTION BREAKOUT
WEATHER BY HOUR - 7 JANUARY, 2013
[ °F ]   °C
Local TimeTemperatureDewpointHumidityBarometerVisibilityWind DirectionWind SpeedGust SpeedPrecipitationEventsConditions
1:00 AM26 °C23 °C83 %1011.2 hPa10 kmESE (120°)5.6 km/hScattered Clouds
2:00 AM26 °C23 °C83 %1011.2 hPa10 kmEast (100°)9.3 km/hOvercast
3:00 AM26 °C24 °C89 %1010.2 hPa10 kmSSE (150°)5.6 km/hOvercast
4:00 AM26 °C23 °C83 %1010.2 hPa10 kmEast (100°)5.6 km/hMostly Cloudy
5:00 AM26.1 °C22.8 °C78 %1010.5 hPa9.7 kmEast (100°)10.8 km/hHaze
5:00 AM25 °C23 °C89 %1010.2 hPa10 kmVariable1.9 km/hPartly Cloudy
6:00 AM25 °C23 °C89 %1011.2 hPa10 kmCalmScattered Clouds
7:00 AM26 °C23 °C83 %1012.2 hPa10 kmVariable3.7 km/hOvercast
8:00 AM26.7 °C23.3 °C77 %1012.9 hPa9.7 kmWest (270°)7.2 km/hHaze
8:00 AM26 °C23 °C83 %1012.2 hPa10 kmWest (280°)7.4 km/hMostly Cloudy
9:00 AM27 °C23 °C79 %1013.2 hPa10 kmNNW (330°)9.3 km/hMostly Cloudy
10:00 AM28 °C23 °C74 %1012.2 hPa10 kmVariable5.6 km/hMostly Cloudy
11:00 AM30 °C22 °C62 %1012.2 hPa10 kmESE (110°)11.1 km/hMostly Cloudy
12:00 PM31 °C23 °C62 %1011.2 hPa10 kmESE (120°)11.1 km/hScattered Clouds
1:00 PM30 °C23 °C66 %1010.2 hPa10 kmVariable7.4 km/hPartly Cloudy
2:00 PM28.3 °C23.9 °C71 %1009.8 hPa8 kmNW (310°)14.3 km/hRainLight Rain
2:00 PM27 °C24 °C84 %1009.1 hPa8 kmNNW (330°)14.8 km/hOvercast
3:00 PM28 °C24 °C79 %1009.1 hPa10 kmEast (90°)7.4 km/hScattered Clouds
4:00 PM30 °C22 °C62 %1008.1 hPa10 kmESE (120°)16.7 km/hScattered Clouds
5:00 PM30 °C21.7 °C53 %1008.8 hPa9.7 kmESE (110°)14.3 km/hHaze
5:00 PM30 °C22 °C62 %1008.1 hPa10 kmESE (110°)14.8 km/hScattered Clouds
6:00 PM29 °C22 °C66 %1010.2 hPa10 kmESE (120°)11.1 km/hScattered Clouds
7:00 PM27 °C22 °C74 %1011.2 hPa10 kmSE (130°)14.8 km/hMostly Cloudy
8:00 PM27.2 °C23.9 °C76 %1011.9 hPa9.7 kmESE (120°)7.2 km/hHaze
8:00 PM27 °C24 °C84 %1011.2 hPa10 kmESE (120°)9.3 km/hMostly Cloudy
9:00 PM27 °C24 °C84 %1011.2 hPa10 kmESE (110°)7.4 km/hScattered Clouds
10:00 PM27 °C24 °C84 %1012.2 hPa10 kmSSE (150°)5.6 km/hScattered Clouds
11:00 PM26 °C24 °C89 %1012.2 hPa10 kmEast (100°)11.1 km/hRainLight Rain Showers
Hourly data recorded from RPLL, located 0 kilometers away from Quezon City, Philippines







STORIES FROM OUR PARTNERS